• en Suisse
  • Liste des pays
  • À 7 jours
  • Température de l'eau
  • Carte satellitaire
  • Carte météo
  • Widgets météo
  • user-avatar
    Se connecter

    Météo par heure à Aleksandrie

    Ce jour, 18 Septembre, Mardi

    Heure Température Précipitation Vent Pression Humidité
    00:00 +26°C° 0 mm 3 m/s 758 mmHg 69%
    01:00 +26°C° 0 mm 2 m/s 758 mmHg 69%
    02:00 +26°C° 0 mm 2 m/s 757 mmHg 69%
    03:00 +26°C° 0 mm 2 m/s 757 mmHg 70%
    04:00 +26°C° 0 mm 2 m/s 758 mmHg 71%
    05:00 +25°C° 0 mm 2 m/s 758 mmHg 72%
    06:00 +27°C° 0 mm 2 m/s 758 mmHg 68%
    07:00 +28°C° 0 mm 2 m/s 758 mmHg 63%
    08:00 +29°C° 0 mm 2 m/s 758 mmHg 58%
    09:00 +31°C° 0 mm 3 m/s 758 mmHg 53%
    10:00 +33°C° 0 mm 3 m/s 758 mmHg 47%
    11:00 +34°C° 0 mm 3 m/s 758 mmHg 42%
    12:00 +34°C° 0 mm 4 m/s 758 mmHg 40%
    13:00 +35°C° 0 mm 5 m/s 758 mmHg 39%
    14:00 +34°C° 0 mm 5 m/s 758 mmHg 42%
    15:00 +34°C° 0 mm 5 m/s 758 mmHg 44%
    16:00 +33°C° 0 mm 5 m/s 758 mmHg 47%
    17:00 +32°C° 0 mm 5 m/s 758 mmHg 49%
    18:00 +30°C° 0 mm 5 m/s 758 mmHg 57%
    19:00 +29°C° 0 mm 4 m/s 758 mmHg 65%
    20:00 +28°C° 0 mm 4 m/s 758 mmHg 73%
    21:00 +27°C° 0 mm 4 m/s 759 mmHg 75%
    22:00 +27°C° 0 mm 3 m/s 759 mmHg 77%
    23:00 +27°C° 0 mm 3 m/s 759 mmHg 80%

    Demain, 19 Septembre, Mercredi

    Heure Température Précipitation Vent Pression Humidité
    00:00 +27°C° 0 mm 3 m/s 759 mmHg 81%
    01:00 +26°C° 0 mm 3 m/s 759 mmHg 82%
    02:00 +26°C° 0 mm 3 m/s 759 mmHg 84%
    03:00 +26°C° 0 mm 3 m/s 759 mmHg 84%
    04:00 +26°C° 0 mm 3 m/s 759 mmHg 84%
    05:00 +26°C° 0 mm 3 m/s 759 mmHg 85%
    06:00 +27°C° 0 mm 3 m/s 759 mmHg 78%
    07:00 +28°C° 0 mm 4 m/s 759 mmHg 72%
    08:00 +29°C° 0 mm 4 m/s 759 mmHg 66%
    09:00 +32°C° 0 mm 4 m/s 759 mmHg 59%
    10:00 +33°C° 0 mm 4 m/s 759 mmHg 52%
    11:00 +34°C° 0 mm 5 m/s 759 mmHg 45%
    12:00 +34°C° 0 mm 5 m/s 759 mmHg 45%
    13:00 +35°C° 0 mm 6 m/s 759 mmHg 44%
    14:00 +35°C° 0 mm 6 m/s 759 mmHg 44%
    15:00 +34°C° 0 mm 6 m/s 758 mmHg 48%
    16:00 +32°C° 0 mm 7 m/s 758 mmHg 53%
    17:00 +30°C° 0 mm 7 m/s 758 mmHg 57%
    18:00 +29°C° 0 mm 6 m/s 759 mmHg 63%
    19:00 +29°C° 0 mm 6 m/s 759 mmHg 69%
    20:00 +28°C° 0 mm 6 m/s 759 mmHg 74%
    21:00 +27°C° 0 mm 5 m/s 759 mmHg 76%
    22:00 +27°C° 0 mm 5 m/s 760 mmHg 77%
    23:00 +27°C° 0 mm 4 m/s 760 mmHg 79%

    Après-demain, 20 Septembre, Jeudi

    Heure Température Précipitation Vent Pression Humidité
    00:00 +26°C° 0 mm 4 m/s 760 mmHg 80%
    01:00 +26°C° 0 mm 4 m/s 759 mmHg 80%
    02:00 +26°C° 0 mm 4 m/s 759 mmHg 81%
    03:00 +26°C° 0 mm 4 m/s 759 mmHg 81%
    04:00 +26°C° 0 mm 3 m/s 759 mmHg 81%
    05:00 +25°C° 0 mm 3 m/s 759 mmHg 81%
    06:00 +26°C° 0 mm 3 m/s 759 mmHg 75%
    07:00 +27°C° 0 mm 4 m/s 760 mmHg 70%
    08:00 +28°C° 0 mm 4 m/s 760 mmHg 64%
    09:00 +30°C° 0 mm 4 m/s 760 mmHg 58%
    10:00 +32°C° 0 mm 4 m/s 760 mmHg 52%
    11:00 +33°C° 0 mm 4 m/s 760 mmHg 46%
    12:00 +33°C° 0 mm 5 m/s 759 mmHg 46%
    13:00 +33°C° 0 mm 6 m/s 759 mmHg 46%
    14:00 +33°C° 0 mm 6 m/s 758 mmHg 46%
    15:00 +32°C° 0 mm 6 m/s 758 mmHg 52%
    16:00 +30°C° 0 mm 6 m/s 758 mmHg 57%
    17:00 +29°C° 0 mm 6 m/s 758 mmHg 62%
    18:00 +29°C° 0 mm 6 m/s 759 mmHg 66%
    19:00 +28°C° 0 mm 5 m/s 759 mmHg 70%
    20:00 +27°C° 0 mm 5 m/s 759 mmHg 74%
    21:00 +27°C° 0 mm 4 m/s 759 mmHg 75%
    22:00 +26°C° 0 mm 4 m/s 759 mmHg 76%
    23:00 +26°C° 0 mm 4 m/s 759 mmHg 77%

    21 Septembre, Vendredi

    Heure Température Précipitation Vent Pression Humidité
    00:00 +26°C° 0 mm 3 m/s 759 mmHg 77%
    01:00 +26°C° 0 mm 3 m/s 759 mmHg 78%
    02:00 +26°C° 0 mm 3 m/s 759 mmHg 78%
    03:00 +25°C° 0 mm 3 m/s 759 mmHg 78%
    04:00 +25°C° 0 mm 3 m/s 759 mmHg 78%
    05:00 +25°C° 0 mm 3 m/s 759 mmHg 77%
    06:00 +26°C° 0 mm 3 m/s 759 mmHg 72%
    07:00 +27°C° 0 mm 3 m/s 759 mmHg 66%
    08:00 +28°C° 0 mm 4 m/s 760 mmHg 60%
    09:00 +29°C° 0 mm 4 m/s 760 mmHg 55%
    10:00 +30°C° 0 mm 4 m/s 760 mmHg 50%
    11:00 +32°C° 0 mm 4 m/s 760 mmHg 45%
    12:00 +33°C° 0 mm 5 m/s 759 mmHg 45%
    13:00 +33°C° 0 mm 5 m/s 759 mmHg 45%
    14:00 +33°C° 0 mm 6 m/s 759 mmHg 45%
    15:00 +32°C° 0 mm 6 m/s 759 mmHg 50%
    16:00 +30°C° 0 mm 6 m/s 759 mmHg 54%
    17:00 +29°C° 0 mm 6 m/s 759 mmHg 59%
    18:00 +28°C° 0 mm 5 m/s 759 mmHg 64%
    19:00 +28°C° 0 mm 5 m/s 759 mmHg 70%
    20:00 +27°C° 0 mm 4 m/s 760 mmHg 76%
    21:00 +26°C° 0 mm 4 m/s 760 mmHg 77%
    22:00 +26°C° 0 mm 4 m/s 760 mmHg 78%
    23:00 +26°C° 0 mm 3 m/s 760 mmHg 80%

    22 Septembre, Samedi

    Heure Température Précipitation Vent Pression Humidité
    00:00 +26°C° 0 mm 3 m/s 760 mmHg 80%
    01:00 +25°C° 0 mm 3 m/s 760 mmHg 79%
    02:00 +25°C° 0 mm 2 m/s 760 mmHg 79%
    03:00 +25°C° 0 mm 3 m/s 760 mmHg 79%
    04:00 +25°C° 0 mm 3 m/s 760 mmHg 79%
    05:00 +25°C° 0 mm 3 m/s 760 mmHg 79%
    06:00 +26°C° 0 mm 3 m/s 760 mmHg 74%
    07:00 +27°C° 0 mm 3 m/s 760 mmHg 68%
    08:00 +28°C° 0 mm 3 m/s 761 mmHg 62%
    09:00 +29°C° 0 mm 3 m/s 761 mmHg 56%
    10:00 +30°C° 0 mm 4 m/s 760 mmHg 50%
    11:00 +32°C° 0 mm 4 m/s 760 mmHg 44%
    12:00 +33°C° 0 mm 4 m/s 760 mmHg 44%
    13:00 +33°C° 0 mm 5 m/s 760 mmHg 44%
    14:00 +33°C° 0 mm 5 m/s 759 mmHg 45%
    15:00 +32°C° 0 mm 6 m/s 759 mmHg 49%
    16:00 +30°C° 0 mm 6 m/s 759 mmHg 53%
    17:00 +29°C° 0 mm 6 m/s 760 mmHg 57%
    18:00 +28°C° 0 mm 5 m/s 760 mmHg 62%
    19:00 +28°C° 0 mm 5 m/s 760 mmHg 66%
    20:00 +27°C° 0 mm 4 m/s 761 mmHg 71%
    21:00 +26°C° 0 mm 4 m/s 761 mmHg 72%
    22:00 +26°C° 0 mm 4 m/s 761 mmHg 72%
    23:00 +26°C° 0 mm 3 m/s 761 mmHg 73%

    23 Septembre, Dimanche

    Heure Température Précipitation Vent Pression Humidité
    00:00 +26°C° 0 mm 3 m/s 761 mmHg 73%
    01:00 +25°C° 0 mm 3 m/s 761 mmHg 73%
    02:00 +25°C° 0 mm 3 m/s 760 mmHg 72%
    03:00 +25°C° 0 mm 3 m/s 760 mmHg 73%
    04:00 +25°C° 0 mm 3 m/s 761 mmHg 73%
    05:00 +25°C° 0 mm 3 m/s 761 mmHg 74%
    06:00 +26°C° 0 mm 3 m/s 761 mmHg 69%
    07:00 +27°C° 0 mm 3 m/s 761 mmHg 64%
    08:00 +28°C° 0 mm 3 m/s 761 mmHg 60%
    09:00 +29°C° 0 mm 3 m/s 761 mmHg 54%
    10:00 +30°C° 0 mm 3 m/s 761 mmHg 49%
    11:00 +31°C° 0 mm 3 m/s 761 mmHg 44%
    12:00 +33°C° 0 mm 4 m/s 760 mmHg 44%
    13:00 +33°C° 0 mm 5 m/s 760 mmHg 44%
    14:00 +33°C° 0 mm 6 m/s 759 mmHg 45%
    15:00 +32°C° 0 mm 6 m/s 760 mmHg 48%
    16:00 +30°C° 0 mm 6 m/s 760 mmHg 51%
    17:00 +29°C° 0 mm 6 m/s 760 mmHg 55%
    18:00 +28°C° 0 mm 5 m/s 760 mmHg 59%
    19:00 +27°C° 0 mm 5 m/s 760 mmHg 64%
    20:00 +27°C° 0 mm 4 m/s 761 mmHg 68%
    21:00 +26°C° 0 mm 4 m/s 761 mmHg 70%
    22:00 +26°C° 0 mm 4 m/s 761 mmHg 72%
    23:00 +26°C° 0 mm 4 m/s 761 mmHg 73%
    Voir plus